[[{"header":{"parameterUnit":"m.s-1","parameterCategory":1,"la1":30.2991,"la2":30.254,"lo1":-89.0895,"lo2":-89.0444,"dy":0.0017,"dx":0.0017,"nx":28,"ny":28,"refTime":"2024-12-05T03:00:00:Z","depth":0,"parameterNumber":2,"parameterNumberName":"U-component_of_WINDS"},"data":[0,0,0,0,0,0,0,0,0,0,0,0,0,0,0,0,0,0,0,0,0,0,0,0,0,0,0,0,0,0,0,0,0,0,0,0,0,0,0,0,0,0,0,0,0,0,0,0,0,0,0,0,0,0,0,0,0,0,-1.9405,-1.9406,0,-1.9492,-1.9493,-1.9494,-1.9585,-1.9586,-1.9588,-1.9589,-1.9671,-1.9672,-1.9673,0,0,0,0,0,0,0,0,0,0,0,0,0,-1.9309,-1.931,-1.9405,-1.9406,-1.9407,-1.9492,-1.9493,-1.9495,-1.9585,-1.9586,-1.9588,-1.9589,-1.9671,-1.9672,-1.9673,0,0,0,0,0,0,0,0,0,0,0,0,0,-1.9368,-1.931,-1.9405,-1.9463,-1.9469,-1.9492,-1.9494,-1.9495,-1.9585,-1.9586,-1.9588,-1.959,-1.967,-1.9672,-1.9673,-1.9645,0,0,-1.9678,-1.9679,0,0,0,0,0,0,0,0,-1.9365,-1.9372,-1.9453,-1.9459,-1.9466,-1.953,-1.949,-1.9545,-1.9584,-1.954,-1.9589,-1.9591,-1.9622,-1.9628,-1.964,-1.9648,-1.9652,-1.9678,-1.9679,-1.968,-1.968,0,0,0,0,0,0,0,-1.9361,-1.9369,-1.944,-1.9454,-1.9462,-1.9482,-1.9492,-1.9501,-1.9569,-1.9544,-1.9551,-1.9561,-1.9626,-1.9638,-1.9642,-1.9653,-1.9678,-1.9679,-1.968,-1.9681,-1.9639,-1.9637,0,0,0,0,0,0,-1.9349,-1.9365,-1.9437,-1.9442,-1.9419,-1.9482,-1.9494,-1.9507,-1.9569,-1.9581,-1.9559,-1.9564,-1.9635,-1.964,-1.9646,-1.9613,-1.968,-1.9681,-1.9682,-1.9641,-1.9639,-1.9636,0,0,0,0,0,0,-1.9346,-1.9354,-1.9433,-1.9405,-1.9417,-1.9482,-1.9496,-1.9508,-1.952,-1.9581,-1.9593,-1.9559,-1.9636,-1.9643,-1.9644,-1.9618,-1.9682,-1.9683,-1.9643,-1.964,-1.9637,-1.955,0,0,0,0,0,0,-1.9343,-1.9353,-1.9345,-1.9405,-1.9418,-1.9432,-1.9495,-1.9508,-1.9524,-1.9532,-1.9584,-1.9594,-1.9638,-1.9641,-1.9645,-1.9621,-1.9684,-1.9646,-1.9642,-1.9638,-1.9555,-1.9544,-1.9535,0,0,0,0,0,-1.9339,-1.9316,-1.9344,-1.9352,-1.9409,-1.9431,-1.9438,-1.9491,-1.9521,-1.9512,-1.955,-1.9593,-1.962,-1.964,-1.9646,-1.9621,-1.9648,-1.9643,-1.9639,-1.956,-1.9546,-1.9535,0,0,0,0,0,0,-1.9249,-1.9325,-1.9357,-1.9352,-1.9384,-1.9446,-1.9436,-1.9475,-1.9498,-1.9504,-1.9567,-1.9578,-1.957,-1.9597,-1.9617,-1.9595,-1.964,-1.9636,-1.9578,-1.9566,-1.9556,-1.9548,-1.9686,0,0,0,0,0,-1.9229,-1.9242,-1.9307,-1.9296,-1.9311,-1.937,-1.9382,-1.942,-1.9455,-1.9468,-1.9507,-1.9537,-1.9552,-1.9561,-1.9579,-1.956,-1.9571,-1.9546,-1.9536,-1.9527,-1.9522,-1.9511,-1.9499,-1.9621,-1.9621,-1.9622,0,0,-1.9186,-1.923,-1.9234,-1.9279,-1.9309,-1.9318,-1.9381,-1.9389,-1.9396,-1.9469,-1.9471,-1.95,-1.9538,-1.9528,-1.9526,-1.955,-1.9491,-1.9521,-1.9514,-1.9514,-1.9505,-1.9493,-1.9483,-1.9618,-1.9619,-1.9619,0,0,-1.9114,-1.9149,-1.9143,-1.9172,-1.9216,-1.9256,-1.9254,-1.931,-1.9332,-1.9336,-1.939,-1.9398,-1.9424,-1.9448,-1.9463,-1.9398,-1.9437,-1.9402,-1.9347,-1.9335,-1.9326,-1.9317,-1.9291,-1.9281,-1.9398,-1.9397,-1.9397,0,-1.9055,-1.9074,-1.9134,-1.9139,-1.9155,-1.9224,-1.9216,-1.924,-1.9287,-1.9296,-1.9323,-1.9355,-1.9386,-1.9381,-1.9365,-1.9376,-1.9373,-1.9395,-1.9323,-1.9315,-1.9308,-1.9283,-1.9273,-1.9393,-1.9393,-1.9394,-1.9394,0,-1.8997,-1.901,-1.8999,-1.9044,-1.906,-1.9058,-1.9115,-1.9123,-1.916,-1.9195,-1.9197,-1.9236,-1.9261,-1.9263,-1.9299,-1.9262,-1.9276,-1.9312,-1.9357,-1.9291,-1.9268,-1.9259,-1.9386,-1.9388,-1.9389,-1.939,0,0,-1.8869,-1.8948,-1.8943,-1.8963,-1.9016,-1.9025,-1.9025,-1.9052,-1.9056,-1.9086,-1.9085,-1.9105,-1.9138,-1.9156,-1.9194,-1.9185,-1.9126,-1.9222,-1.9224,-1.92,-1.9084,-1.9054,-1.9043,-1.9153,-1.9152,-1.9151,-1.908,0,-1.8804,-1.881,-1.8863,-1.8853,-1.8863,-1.8928,-1.8927,-1.8958,-1.8991,-1.9002,-1.9038,-1.9049,-1.9095,-1.9105,-1.9099,-1.9134,-1.9103,-1.9141,-1.9149,-1.9149,-1.9135,-1.9032,-1.9001,-1.8932,-1.9072,-1.9071,-1.907,0,-1.8728,-1.8754,-1.8745,-1.8797,-1.8803,-1.8801,-1.8829,-1.884,-1.8875,-1.89,-1.8918,-1.8962,-1.8962,-1.9007,-1.9007,-1.9031,-1.9038,-1.9056,-1.9054,-1.9054,-1.9103,-1.9025,-1.8912,-1.89,-1.9057,-1.9058,-1.9059,0,-1.8631,-1.8664,-1.8662,-1.8678,-1.8739,-1.8736,-1.8761,-1.8799,-1.881,-1.8834,-1.8841,-1.8864,-1.8875,-1.889,-1.8937,-1.8967,-1.893,-1.898,-1.8947,-1.8945,-1.8934,-1.8933,-1.8815,-1.8943,-1.8943,-1.8943,-1.8944,0,-1.855,-1.8541,-1.8619,-1.8617,-1.8608,-1.8669,-1.8657,-1.8688,-1.872,-1.8724,-1.8781,-1.8782,-1.8847,-1.8854,-1.8891,-1.8882,-1.8888,-1.8905,-1.8914,-1.8898,-1.8895,-1.8901,-1.8906,-1.8941,-1.8941,-1.8942,-1.8942,0,-1.8439,-1.8492,-1.8494,-1.8552,-1.8566,-1.8556,-1.8604,-1.8603,-1.864,-1.8643,-1.8647,-1.8704,-1.8715,-1.8765,-1.8788,-1.8813,-1.879,-1.8811,-1.8779,-1.8784,-1.8747,-1.8748,-1.8626,-1.8612,-1.8751,-1.875,-1.8749,0,-1.8383,-1.8377,-1.8435,-1.8442,-1.8465,-1.8476,-1.8488,-1.8547,-1.8557,-1.8596,-1.859,-1.8606,-1.8623,-1.8638,-1.8679,-1.8696,-1.8715,-1.8672,-1.8718,-1.8701,-1.871,-1.8709,-1.8707,-1.866,-1.8658,-1.8657,-1.8656,0,-1.8275,-1.8302,-1.8319,-1.8344,-1.8358,-1.838,-1.8406,-1.8407,-1.8473,-1.848,-1.8494,-1.8506,-1.853,-1.8545,-1.8569,-1.8592,-1.8632,-1.8641,-1.8634,-1.8615,-1.8595,-1.8602,-1.8747,-1.8643,-1.8644,-1.8645,-1.8646,-1.8647,-1.8188,-1.8185,-1.8225,-1.8241,-1.8266,-1.8288,-1.829,-1.8327,-1.834,-1.8365,-1.8399,-1.8407,-1.844,-1.8476,-1.8496,-1.8501,-1.8525,-1.8515,-1.8512,-1.8507,-1.8498,-1.8597,-1.8506,-1.8506,-1.8507,-1.8507,-1.8507,0,-1.8081,-1.811,-1.8124,-1.8158,-1.817,-1.8211,-1.8241,-1.8247,-1.8254,-1.8283,-1.8297,-1.8311,-1.8325,-1.8367,-1.8385,-1.838,-1.8399,-1.8382,-1.8381,-1.8385,-1.8477,-1.848,-1.8366,-1.8366,-1.8366,-1.8366,-1.8366,-1.8367,-1.8026,-1.8022,-1.8053,-1.8061,-1.8089,-1.8099,-1.8112,-1.8131,-1.8154,-1.8167,-1.8179,-1.8208,-1.8241,-1.8261,-1.8274,-1.8286,-1.8288,-1.8264,-1.8281,-1.8366,-1.8379,-1.8392,-1.8395,-1.8265,-1.8265,-1.8188,-1.8188,-1.8187]},{"header":{"parameterUnit":"m.s-1","parameterCategory":1,"la1":30.2991,"la2":30.254,"lo1":-89.0895,"lo2":-89.0444,"dy":0.0017,"dx":0.0017,"nx":28,"ny":28,"refTime":"2024-12-05T03:00:00:Z","depth":0,"parameterNumber":3,"parameterNumberName":"V-component_of_WINDS"},"data":[0,0,0,0,0,0,0,0,0,0,0,0,0,0,0,0,0,0,0,0,0,0,0,0,0,0,0,0,0,0,0,0,0,0,0,0,0,0,0,0,0,0,0,0,0,0,0,0,0,0,0,0,0,0,0,0,0,0,2.8795,2.8794,0,2.8738,2.8737,2.8737,2.8604,2.8601,2.8598,2.8596,2.854,2.8541,2.8543,0,0,0,0,0,0,0,0,0,0,0,0,0,2.8796,2.8797,2.8795,2.8794,2.8794,2.8738,2.8737,2.8736,2.8604,2.8601,2.8598,2.8595,2.854,2.8541,2.8543,0,0,0,0,0,0,0,0,0,0,0,0,0,2.8773,2.8797,2.8795,2.8721,2.8714,2.8738,2.8737,2.8736,2.8605,2.8601,2.8597,2.8593,2.854,2.8541,2.8543,2.8636,0,0,2.8548,2.8549,0,0,0,0,0,0,0,0,2.8775,2.8773,2.8733,2.8726,2.8718,2.8674,2.8717,2.8703,2.8606,2.8647,2.8596,2.8591,2.8588,2.8586,2.8584,2.8633,2.8631,2.8548,2.8549,2.855,2.855,0,0,0,0,0,0,0,2.8777,2.8775,2.8772,2.8732,2.8723,2.8693,2.8685,2.8714,2.8641,2.8643,2.8633,2.8628,2.8584,2.8583,2.8582,2.863,2.8548,2.8549,2.855,2.8551,2.8758,2.8762,0,0,0,0,0,0,2.8788,2.8777,2.8774,2.8771,2.8737,2.8696,2.8687,2.8692,2.8641,2.8629,2.8631,2.8622,2.8582,2.858,2.8579,2.8688,2.855,2.8551,2.8552,2.8754,2.8759,2.8764,0,0,0,0,0,0,2.8789,2.8789,2.8777,2.8771,2.8767,2.87,2.8707,2.8693,2.8692,2.8632,2.8619,2.8644,2.8579,2.8577,2.8624,2.8684,2.8552,2.8553,2.8748,2.8755,2.8762,2.8904,0,0,0,0,0,0,2.8789,2.879,2.8823,2.8773,2.8768,2.882,2.8711,2.8695,2.8695,2.8682,2.864,2.8629,2.8575,2.8622,2.8626,2.8684,2.8555,2.8743,2.8751,2.8759,2.8894,2.8915,2.8933,0,0,0,0,0,2.879,2.8865,2.8825,2.8825,2.8807,2.8824,2.8821,2.8757,2.87,2.8734,2.8697,2.863,2.8677,2.8628,2.8631,2.8691,2.8738,2.8749,2.8759,2.8885,2.8911,2.8933,0,0,0,0,0,0,2.8922,2.8856,2.8812,2.8872,2.8855,2.8801,2.8841,2.8786,2.8784,2.8772,2.8694,2.8685,2.8744,2.8721,2.8668,2.8781,2.8698,2.8709,2.8793,2.8817,2.8836,2.884,2.8556,0,0,0,0,0,2.8959,2.8976,2.8918,2.8977,2.8971,2.8909,2.8913,2.8866,2.8844,2.8836,2.8802,2.8785,2.8797,2.8805,2.8812,2.8891,2.8882,2.8934,2.8953,2.897,2.898,2.9025,2.9049,2.8797,2.8797,2.8797,0,0,2.9034,2.9,2.9015,2.9003,2.8984,2.9006,2.8903,2.8929,2.8946,2.8841,2.8883,2.8858,2.8835,2.8899,2.8925,2.8882,2.9048,2.8983,2.8996,2.8998,2.9038,2.9062,2.9083,2.8804,2.8803,2.8802,0,0,2.9182,2.9157,2.9206,2.919,2.9162,2.9121,2.9133,2.9089,2.9069,2.911,2.9033,2.9053,2.9073,2.9061,2.9057,2.9208,2.9149,2.9213,2.9316,2.936,2.938,2.9397,2.9454,2.9475,2.9224,2.9224,2.9224,0,2.9279,2.9307,2.9238,2.9271,2.927,2.9177,2.9227,2.9215,2.9192,2.9195,2.9147,2.9174,2.9151,2.9213,2.9251,2.925,2.9264,2.9217,2.9382,2.9399,2.9414,2.9468,2.9489,2.9232,2.9231,2.923,2.923,0,2.943,2.9452,2.9494,2.9475,2.9479,2.9521,2.9461,2.9473,2.9428,2.9393,2.9439,2.941,2.9411,2.9422,2.9377,2.948,2.9455,2.9396,2.9311,2.9447,2.9496,2.9516,2.9244,2.9241,2.9239,2.9237,0,0,2.9656,2.9602,2.9619,2.9611,2.9577,2.9594,2.9634,2.9635,2.9649,2.9638,2.9672,2.9694,2.9641,2.9637,2.959,2.963,2.9756,2.9566,2.9565,2.9605,2.9872,2.9918,2.9942,2.9717,2.972,2.9723,2.9875,0,2.9797,2.986,2.9802,2.9877,2.9899,2.9814,2.985,2.9835,2.9805,2.9821,2.9788,2.9806,2.9733,2.9731,2.9766,2.9733,2.9809,2.9721,2.975,2.9752,2.9759,2.9967,3.0014,3.0159,2.9894,2.9897,2.9899,0,2.9968,2.9967,3.0045,3.0011,3.0018,3.005,3.005,3.0065,3.0049,3.0024,3.0024,2.9968,3.0008,2.9926,2.9983,2.9925,2.9934,2.992,2.9924,2.9925,2.9834,2.9975,3.0203,3.0225,2.9928,2.9926,2.9924,0,3.0129,3.0147,3.0197,3.0193,3.0153,3.0179,3.0164,3.0143,3.0149,3.015,3.0154,3.016,3.0163,3.017,3.0119,3.0063,3.0184,3.0096,3.0168,3.0169,3.0196,3.0195,3.043,3.0201,3.02,3.02,3.02,0,3.0293,3.0345,3.0269,3.03,3.0358,3.0292,3.0351,3.0328,3.0311,3.0339,3.0266,3.0294,3.0224,3.0246,3.0206,3.0262,3.0263,3.0247,3.0236,3.0254,3.0257,3.0259,3.0248,3.0206,3.0204,3.0203,3.0202,0,3.0481,3.0432,3.0481,3.0442,3.0433,3.0478,3.0445,3.0474,3.0441,3.0477,3.0482,3.0431,3.0453,3.0403,3.0418,3.0392,3.0472,3.0444,3.0477,3.047,3.0545,3.054,3.079,3.0821,3.0571,3.0573,3.0575,0,3.0589,3.0627,3.0593,3.0606,3.0595,3.0617,3.0624,3.0563,3.0574,3.0561,3.0593,3.0609,3.0619,3.066,3.0625,3.0638,3.0611,3.0699,3.0612,3.0631,3.0616,3.0615,3.062,3.0716,3.0719,3.0722,3.0724,0,3.0787,3.0762,3.0774,3.078,3.0791,3.0793,3.0789,3.0805,3.074,3.0757,3.0779,3.0787,3.0805,3.0823,3.0829,3.0816,3.0762,3.0752,3.0769,3.0788,3.0807,3.0801,3.0528,3.0746,3.0743,3.0742,3.0741,3.074,3.0939,3.0971,3.0953,3.0971,3.0963,3.0963,3.0989,3.0961,3.0979,3.0988,3.0951,3.0983,3.0971,3.0973,3.0967,3.0993,3.0954,3.0978,3.0985,3.0993,3.1006,3.0803,3.0993,3.0993,3.0992,3.0991,3.0991,0,3.1135,3.112,3.1138,3.1136,3.1152,3.1099,3.1094,3.1112,3.114,3.1133,3.1146,3.1174,3.1194,3.1163,3.1178,3.1206,3.1181,3.1212,3.121,3.1209,3.1039,3.1023,3.1232,3.1232,3.1232,3.1232,3.1231,3.1231,3.1239,3.1291,3.1266,3.1316,3.1301,3.1332,3.1334,3.1336,3.133,3.1365,3.1381,3.1361,3.1346,3.1361,3.1378,3.1369,3.1379,3.1419,3.1402,3.1243,3.122,3.1197,3.1182,3.1421,3.1421,3.1569,3.1571,3.1572]}]]